Location: Peebles
(55.6412°N, 3.1714°W)
Time: 02:43:22
(UTC+01:00)

FENGYUN 1C DEB - Pass Details

Date: 07 July 2022
Orbit: 580 x 1160 km, 99.3° (Epoch: 11 August)

Event Time Altitude Azimuth Distance (km) Brightness Sun altitude
Exits shadow 01:47:25 13° 206° (SSW) 2,405 ? -11.5°
Maximum altitude 01:52:08 35° 268° (W) 1,572 ? -11.4°
Drops below altitude 10° 01:58:13 10° 332° (NNW) 2,955 ? -11.3°
Sets 02:01:12 0° 341° (NNW) 3,974 ? -11.2°
